Date,TemperatureHighF,TemperatureAvgF,TemperatureLowF,DewpointHighF,DewpointAvgF,DewpointLowF,HumidityHigh,HumidityAvg,HumidityLow,PressureMaxIn,PressureMinIn,WindSpeedMaxMPH,WindSpeedAvgMPH,GustSpeedMaxMPH,PrecipitationSumIn
2013-2-1,21.4,16.2,10.6,11.8,6.9,0.5,85,66,57,30.03,29.48,5,2,13,0.00
2013-2-2,21.2,13.9,4.8,13.2,6.5,-0.6,88,73,55,30.11,30.00,6,1,16,0.00
2013-2-3,28.0,17.3,7.1,16.9,10.7,3.0,88,76,55,30.00,29.69,5,0,8,0.02
2013-2-4,23.7,15.5,6.0,12.7,6.6,-4.5,87,69,46,29.87,29.66,6,1,17,0.00
2013-2-5,22.8,11.6,0.5,6.3,-1.3,-8.3,70,57,33,29.98,29.86,6,1,12,0.00
2013-2-6,31.2,18.0,7.5,23.3,8.7,-7.9,84,67,46,30.29,29.86,4,1,17,0.00
2013-2-7,16.5,9.3,1.5,-3.4,-7.5,-12.2,65,47,30,30.48,30.30,4,0,7,0.00
2013-2-8,24.4,16.9,11.4,20.4,12.0,-2.8,92,81,52,30.41,29.88,7,1,19,0.00
2013-2-9,13.0,8.9,0.8,10.0,4.4,-3.9,92,82,71,30.25,29.84,8,3,21,0.00
2013-2-10,31.0,10.8,-4.5,13.1,2.2,-8.8,87,71,38,30.39,30.25,8,2,9,0.50
2013-2-11,33.6,23.2,9.1,32.4,20.6,5.8,100,90,56,30.28,29.59,16,2,29,0.00
2013-2-12,35.7,31.9,28.8,32.8,30.3,26.8,100,94,87,29.82,29.59,7,2,18,0.04
2013-2-13,37.1,29.5,25.0,27.5,25.0,22.0,93,83,67,29.84,29.76,5,0,8,0.03
2013-2-14,34.9,27.2,21.4,24.5,21.6,17.0,92,80,58,29.97,29.73,6,1,8,0.01
2013-2-15,43.5,30.8,22.4,31.4,24.6,19.1,92,78,60,29.96,29.87,8,2,21,0.01
2013-2-16,34.4,25.6,18.0,25.1,17.5,5.1,94,72,54,29.96,29.85,3,0,9,0.04
2013-2-17,17.8,12.2,6.8,9.0,3.6,-0.6,82,68,55,29.84,29.55,7,2,13,0.00
2013-2-18,25.8,11.6,1.8,6.4,-1.9,-6.3,75,56,33,30.11,29.73,6,2,16,0.01
2013-2-19,39.9,24.7,6.2,33.1,13.1,-3.6,95,64,28,30.13,29.58,14,3,30,0.00
2013-2-20,33.1,25.4,20.0,32.1,23.0,17.5,100,91,79,29.70,29.54,1,0,10,0.00
2013-2-21,22.5,15.9,9.5,18.1,11.0,4.9,94,81,58,30.26,29.70,0,0,6,0.08
2013-2-22,37.2,25.0,13.7,27.0,20.4,11.8,94,84,60,30.40,30.26,4,0,8,0.28
2013-2-23,34.8,30.0,25.4,30.2,26.5,21.2,100,87,77,30.27,29.93,9,3,19,0.00
2013-2-24,34.7,31.1,29.0,32.9,30.5,29.0,100,98,92,29.94,29.78,0,0,4,0.18
2013-2-25,36.5,31.3,28.6,32.6,30.2,28.4,100,96,83,30.23,29.92,0,0,0,0.14
2013-2-26,40.0,32.4,27.5,34.1,29.6,25.9,98,89,78,30.32,30.18,4,0,12,0.04
2013-2-27,36.5,31.9,28.4,31.4,28.0,24.5,95,86,79,30.17,29.67,7,2,27,0.02
2013-2-28,47.4,35.8,29.3,35.6,31.4,26.3,99,85,63,29.66,29.58,4,1,11,0.15